Погода в Колимбии

Греция     36°15′26″N   28°08′39″E
темп.,
°C
ветер,
м/с
пор.,
м/с
влажн.,
%
обл.,
%
осадки,
мм/ч
давл.,
гПа
погр.,
м
23 апреля, пт
пт2300:00+16зсз44615 0.0 1020108
03:00+16зсз34623 0.0 101989
06:00+16сз45679 0.0 1019109
09:00+18ссз3454100 0.0 1019130
12:00+20св22505 0.0 1020253
15:00+20ююв21474 0.0 1019299
18:00+20ююз21511 0.0 1018186
21:00+19ссз01605 0.0 101811
24 апреля, сб
сб2400:00+19зюз22525 0.0 101711
03:00+18сз22465 0.0 101512
06:00+18сз3355100 0.0 101435
09:00+20сз115789 0.0 101459
12:00+21ююв214686 0.0 1014206
15:00+21ю3350100 0.0 101391
18:00+20ююз5660100 0.0 1011106
21:00+19св7866100 0.0 101093
25 апреля, вс
вс2500:00+19св3375100 0.0 100928
03:00+19ююз2266100 0.0 100816
06:00+19в336558 0.0 100721
09:00+19юв4468100 0.0 1008104
12:00+20ю346572 0.0 1007142
15:00+20ю44630 0.0 1006289
18:00+20сз24600 0.0 1005178
21:00+18зсз59810 0.0 1006246
26 апреля, пн
пн2600:00+17зсз711800 0.0 1006342
03:00+17зсз814810 0.0 1006452
06:00+16зсз914800 0.0 1006418
09:00+18сз1013680 0.0 1008497
12:00+19сз1113600 0.0 1009418
15:00+22сз1012510 0.0 1008293
18:00+19зсз1216610 0.0 1009386
21:00+18зсз1016700 0.0 1010395
27 апреля, вт
вт2700:00+18сз813700 0.0 1011384
03:00+16зсз711765 0.0 1011323
06:00+16зсз59750 0.0 1011267
09:00+18сз46635 0.0 1013270
12:00+21ссз23525 0.0 1013172
15:00+23зсз134699 0.0 1012188
18:00+21зсз4647100 0.0 1013112
21:00+19з22555 0.0 101320